Current Weather Conditions: station 46208

sailwx.info

Wind from 200 at 13 knots gusting 19

Wave height 1.9 meters (6 feet), 6 second period

Air temperature 12.8° C

Last reported at 2020-Jul-11 14:00 UTC.
Time now 2020-Jul-11 15:28 UTC

Location: N 52°30' W 132°42'.
View on Google Maps.

See reports from other nearby stations

  
Tides and Currents Weather Stations Pressure Air Temp Water Temp Dewpoint Dewpoint Depression Visibility Wind Speed Wind Dir Waves Ship Positions
date/time (UTC)wind fromknots sea level pressurealtimeterstation pressurevisibilityair tempwater tempwave heightnotes
2020-Jul-11 14:00 200 13 gusting 19 12.8 1.9
2020-Jul-11 13:00 200 11 gusting 15 13.0 1.7
2020-Jul-11 12:00 190 11 gusting 15 12.6 1.9
2020-Jul-11 11:00 200 13 gusting 15 12.5 1.8
2020-Jul-11 10:00 210 11 gusting 15 12.6 2.0
2020-Jul-11 09:00 190 13 gusting 15 13.1 2.0
2020-Jul-11 08:00 190 11 gusting 13 13.1 1.9
2020-Jul-11 07:00 200 13 gusting 15 13.0 1.8
2020-Jul-11 06:00 210 11 gusting 15 12.9 1.8
2020-Jul-11 05:00 220 13 gusting 15 13.2 1.9
2020-Jul-11 04:00 230 13 gusting 17 13.2 2.1
2020-Jul-11 03:00 250 11 gusting 15 12.5 2.2
2020-Jul-11 02:00 180 11 gusting 15 12.8 2.2
2020-Jul-11 01:00 180 15 gusting 17 13.1 2.1
2020-Jul-11 00:00 170 13 gusting 17 13.0 2.4
2020-Jul-10 23:00 170 13 gusting 19 13.2 2.3
2020-Jul-10 22:00 180 15 gusting 17 13.3 2.3
2020-Jul-10 21:00 160 17 gusting 21 13.4 2.2
2020-Jul-10 20:00 160 21 gusting 25 12.9 2.2
2020-Jul-10 19:00 160 19 gusting 25 13.0 2.2
2020-Jul-10 18:00 170 19 gusting 23 12.7 2.1
2020-Jul-10 17:00 160 23 gusting 29 12.7 2.0
2020-Jul-10 16:00 160 19 gusting 23 12.8 2.0
2020-Jul-10 15:00 160 17 gusting 21 12.5 1.8
2020-Jul-10 14:00 170 17 gusting 21 12.6 1.8
2020-Jul-10 13:00 170 17 gusting 21 12.7 1.7
2020-Jul-10 12:00 170 15 gusting 19 12.7 1.7
2020-Jul-10 11:00 180 17 gusting 21 12.6 1.7
2020-Jul-10 10:00 180 17 gusting 19 12.9 1.5
2020-Jul-10 09:00 180 17 gusting 21 12.7 1.6
2020-Jul-10 08:00 190 17 gusting 21 12.6 1.4
2020-Jul-10 07:00 190 15 gusting 19 12.8 1.3
2020-Jul-10 06:00 190 17 gusting 19 13.1 1.3
2020-Jul-10 05:00 190 13 gusting 17 13.0 1.3
2020-Jul-10 04:00 190 15 gusting 19 13.1 1.4
2020-Jul-10 03:00 160 13 gusting 17 13.1 1.3
2020-Jul-10 02:00 180 11 gusting 13 13.5 1.4
2020-Jul-10 01:00 200 11 gusting 13 13.1 1.3
2020-Jul-10 00:00 190 11 gusting 15 13.5 1.3
2020-Jul-09 23:00 190 11 gusting 13 13.4 1.2
2020-Jul-09 22:00 190 11 gusting 15 12.6 1.2
2020-Jul-09 21:00 180 11 gusting 11 13.6 1.1
2020-Jul-09 20:00 180 9 gusting 11 13.5 1.1
2020-Jul-09 19:00 180 9 gusting 11 12.7 1.2
2020-Jul-09 18:00 150 9 gusting 11 13.0 1.2
2020-Jul-09 17:00 150 7 gusting 11 12.7 1.4
2020-Jul-09 16:00 140 9 gusting 13 12.9 1.4
2020-Jul-09 15:00 150 11 gusting 13 12.8 1.4